Карточка аэропорта UHMM

Внимание!
Информация на этой странице в стадии наполнения.
Если вы не увидели какой-то информации, или заметили неточность - пожалуйста сообщите нам!
Спасибо!
Команда RU-STAFF
Название аэропортаСокол
Название аэропорта (англ.)Sokol
Превышение575 ft. (175.3 m.)
Координаты59°54.648', 150°43.2'
Высота перехода10000 ft
Эшелон переходаQNH>=1013hPa: FL110; 1013hPa>QNH>=977hPa: FL120; QNH<977hPa: FL130
Коды ответчика6540-6577
Зона ОрВДМагадан РПИ (UHMM)
Данные METARUHMM 211100Z 27001MPS 9999 SCT040CB 16/11 Q1007 RMK QFE741 R28/28002MPS 260V340
Проноз погоды (TAF)UHMM 210749Z 2109/2215 23003G10MPS 9999 BKN030CB TEMPO 2109/2112 5000 -TSRA SCT011 BKN020CB FM211200 09003G09MPS 4000 -SHRA BR BKN011 OVC020CB TEMPO 2112/2212 0500 SHRA FG VV002
NOTAMshow/hide NOTAM
AWOS   TABLE

Информация о ВПП


Диспетчерские позиции

Позывной Наименование органа УВД Частота
UHMM_APPМагадан-Подход119.3
UHMM_TWRМагадан-Вышка120.8



Спутниковое изображение